timestamp,surface_pressure_avg,surface_temp_avg,battery_voltage,lat,long
2020-05-28 00:09:01+00:00,259.1281,6.3,13.37,47.84626,-54.09684
2020-05-28 00:19:01+00:00,263.8264,6.3,12.97,47.84626,-54.09684
2020-05-28 00:29:01+00:00,269.9147,6.3,12.97,47.84626,-54.09684
2020-05-28 00:39:01+00:00,276.498,6.3,12.97,47.84626,-54.09684
2020-05-28 00:49:01+00:00,287.173,6.3,12.97,47.84626,-54.09684
2020-05-28 00:59:01+00:00,292.2297,6.3,12.97,47.84626,-54.09684
2020-05-28 01:09:01+00:00,299.163,6.3,12.97,47.84626,-54.09684
2020-05-28 01:19:01+00:00,304.983,6.3,12.73,47.84626,-54.09684
2020-05-28 01:29:01+00:00,313.6479,6.2,12.73,47.84626,-54.09684
2020-05-28 01:39:01+00:00,318.5663,6.1,12.73,47.84626,-54.09684
2020-05-28 01:49:01+00:00,324.813,6.06,12.73,47.84626,-54.09684
2020-05-28 01:59:01+00:00,327.7312,6.15,12.73,47.84626,-54.09684
2020-05-28 02:09:01+00:00,330.9914,6.1,12.73,47.84626,-54.09684
2020-05-28 02:19:01+00:00,334.153,5.9,12.65,47.84626,-54.09684
2020-05-28 02:29:01+00:00,335.8179,5.97,12.65,47.84626,-54.09684
2020-05-28 02:39:01+00:00,334.7480000000001,6.12,12.65,47.84626,-54.09684
2020-05-28 02:49:01+00:00,337.9664,6.0,12.65,47.84626,-54.09684
2020-05-28 02:59:01+00:00,340.8297,5.8,12.65,47.84626,-54.09684
2020-05-28 03:09:01+00:00,339.5229,5.97,12.65,47.84626,-54.09684
2020-05-28 03:19:01+00:00,341.1163,5.9,12.65,47.84626,-54.09684
2020-05-28 03:29:01+00:00,343.3395,5.69,12.65,47.84626,-54.09684
2020-05-28 03:39:01+00:00,340.2463,5.7,12.65,47.84626,-54.09684
2020-05-28 03:49:01+00:00,339.5862,5.8,12.65,47.84626,-54.09684
2020-05-28 03:59:01+00:00,339.9296,5.7,12.65,47.84626,-54.09684
2020-05-28 04:09:01+00:00,339.0746,5.62,12.65,47.84626,-54.09684
2020-05-28 04:19:01+00:00,332.8879,5.69,12.65,47.84626,-54.09684
2020-05-28 04:29:01+00:00,330.1913,5.7,12.65,47.84626,-54.09684
2020-05-28 04:39:01+00:00,330.7729,5.62,12.65,47.84626,-54.09684
2020-05-28 04:49:01+00:00,327.058,5.9,12.65,47.84626,-54.09684
2020-05-28 04:59:01+00:00,319.473,6.1,12.65,47.84626,-54.09684
2020-05-28 05:09:01+00:00,313.883,6.18,12.65,47.84626,-54.09684
2020-05-28 05:19:01+00:00,312.918,6.28,12.65,47.84626,-54.09684
2020-05-28 05:29:01+00:00,309.2063,6.3,12.65,47.84626,-54.09684
2020-05-28 05:39:01+00:00,302.0297,6.1,12.65,47.84626,-54.09684
2020-05-28 05:49:01+00:00,293.6097,6.21,12.65,47.84626,-54.09684
2020-05-28 05:59:01+00:00,286.7947,6.3,12.65,47.84626,-54.09684
2020-05-28 06:09:01+00:00,279.5665,6.3,12.65,47.84626,-54.09684
2020-05-28 06:19:01+00:00,270.2348,6.3,12.65,47.84626,-54.09684
2020-05-28 06:29:01+00:00,262.6815,6.3,12.65,47.84626,-54.09684
2020-05-28 06:39:01+00:00,256.4298,6.3,12.65,47.84626,-54.09684
2020-05-28 06:49:01+00:00,252.2464,6.3,12.65,47.84626,-54.09684
2020-05-28 06:59:01+00:00,244.5114,6.3,12.65,47.84626,-54.09684
2020-05-28 07:09:01+00:00,237.8831,6.34,12.65,47.84626,-54.09684
2020-05-28 07:19:01+00:00,230.0098,6.38,12.65,47.84626,-54.09684
2020-05-28 07:29:01+00:00,223.9414,6.39,12.65,47.84626,-54.09684
2020-05-28 07:39:01+00:00,219.4714,6.4,12.65,47.84626,-54.09684
2020-05-28 07:49:01+00:00,215.5964,6.4,12.65,47.84626,-54.09684
2020-05-28 07:59:01+00:00,210.0265,6.4,12.65,47.84626,-54.09684
2020-05-28 08:09:01+00:00,205.6631,6.4,12.65,47.84626,-54.09684
2020-05-28 08:19:01+00:00,204.7581,6.4,12.57,47.84626,-54.09684
2020-05-28 08:29:01+00:00,201.3148,6.4,12.57,47.84626,-54.09684
2020-05-28 08:39:01+00:00,195.9215,6.44,12.57,47.84626,-54.09684
2020-05-28 08:49:01+00:00,194.6515,6.46,12.57,47.84626,-54.09684
2020-05-28 08:59:01+00:00,197.0281,6.42,12.57,47.84626,-54.09684
2020-05-28 09:09:01+00:00,194.9848,6.4,12.57,47.84626,-54.09684
2020-05-28 09:19:01+00:00,189.9764,6.41,12.73,47.84626,-54.09684
2020-05-28 09:29:01+00:00,193.5581,6.41,12.73,47.84626,-54.09684
2020-05-28 09:39:01+00:00,200.2398,6.4,12.73,47.84626,-54.09684
2020-05-28 09:49:01+00:00,198.6498,6.4,12.73,47.84626,-54.09684
2020-05-28 09:59:01+00:00,196.0748,6.4,12.73,47.84626,-54.09684
2020-05-28 10:09:01+00:00,202.5964,6.3,12.73,47.84626,-54.09684
2020-05-28 10:19:01+00:00,207.9298,6.3,12.73,47.84626,-54.09684
2020-05-28 10:29:01+00:00,206.188,6.25,12.73,47.84626,-54.09684
2020-05-28 10:39:01+00:00,207.6331,6.22,12.73,47.84626,-54.09684
2020-05-28 10:49:01+00:00,211.7081,6.26,12.73,47.84626,-54.09684
2020-05-28 10:59:01+00:00,213.4265,6.3,12.73,47.84626,-54.09684
2020-05-28 11:09:01+00:00,216.1898,6.3,12.73,47.84626,-54.09684
2020-05-28 11:19:01+00:00,217.5781,6.28,13.05,47.84626,-54.09684
2020-05-28 11:29:01+00:00,218.6481,6.2,13.05,47.84626,-54.09684
2020-05-28 11:39:01+00:00,224.4865,6.2,13.05,47.84626,-54.09684
2020-05-28 11:49:01+00:00,227.3265,6.1,13.05,47.84626,-54.09684
2020-05-28 11:59:01+00:00,223.6698,5.9,13.05,47.84626,-54.09684
2020-05-28 12:09:01+00:00,224.3098,5.91,13.05,47.84626,-54.09684
2020-05-28 12:19:01+00:00,231.7531,5.93,13.21,47.84626,-54.09684
2020-05-28 12:29:01+00:00,234.1031,5.9,13.21,47.84626,-54.09684
2020-05-28 12:39:01+00:00,238.3714,5.9,13.21,47.84626,-54.09684
2020-05-28 12:49:01+00:00,245.9531,5.7,13.21,47.84626,-54.09684
2020-05-28 12:59:01+00:00,253.828,5.67,13.21,47.84626,-54.09684
2020-05-28 13:09:01+00:00,256.7731,5.69,13.21,47.84626,-54.09684
2020-05-28 13:19:01+00:00,261.9014,5.6,13.37,47.84626,-54.09684
2020-05-28 13:29:01+00:00,269.8014,5.6,13.37,47.84626,-54.09684
2020-05-28 13:39:01+00:00,279.028,5.6,13.37,47.84626,-54.09684
2020-05-28 13:49:01+00:00,285.8431,5.5,13.37,47.84626,-54.09684
2020-05-28 13:59:01+00:00,293.2881,5.5,13.37,47.84626,-54.09684
2020-05-28 14:09:01+00:00,300.4131,5.48,13.37,47.84626,-54.09684
2020-05-28 14:19:01+00:00,305.7063,5.44,13.68,47.84626,-54.09684
2020-05-28 14:29:01+00:00,306.668,5.43,13.68,47.84626,-54.09684
2020-05-28 14:39:01+00:00,309.3547,5.41,13.68,47.84626,-54.09684
2020-05-28 14:49:01+00:00,312.2547,5.41,13.68,47.84626,-54.09684
2020-05-28 14:59:01+00:00,309.9363,5.44,13.68,47.84626,-54.09684
2020-05-28 15:09:01+00:00,306.4098,5.45,13.68,47.84626,-54.09684
2020-05-28 15:19:01+00:00,310.9714,5.4,13.68,47.84626,-54.09684
2020-05-28 15:29:01+00:00,312.1713,5.39,13.68,47.84626,-54.09684
2020-05-28 15:39:01+00:00,305.7197,5.38,13.68,47.84626,-54.09684
2020-05-28 15:49:01+00:00,306.3197,5.39,13.68,47.84626,-54.09684
2020-05-28 15:59:01+00:00,310.018,5.39,13.68,47.84626,-54.09684
2020-05-28 16:09:01+00:00,308.423,5.38,13.68,47.84626,-54.09684
2020-05-28 16:19:01+00:00,303.6464,5.4,13.44,47.84626,-54.09684
2020-05-28 16:29:01+00:00,303.8663,5.4,13.44,47.84626,-54.09684
2020-05-28 16:39:01+00:00,306.2947,5.39,13.44,47.84626,-54.09684
2020-05-28 16:49:01+00:00,308.6097,5.33,13.44,47.84626,-54.09684
2020-05-28 16:59:01+00:00,304.9014,5.37,13.44,47.84626,-54.09684
2020-05-28 17:09:01+00:00,300.2164,5.4,13.44,47.84626,-54.09684
2020-05-28 17:19:01+00:00,299.6247,5.4,13.92,47.84626,-54.09684
2020-05-28 17:29:01+00:00,299.8181,5.42,13.92,47.84626,-54.09684
2020-05-28 17:39:01+00:00,296.3497,5.45,13.92,47.84626,-54.09684
2020-05-28 17:49:01+00:00,289.6597,5.49,13.92,47.84626,-54.09684
2020-05-28 17:59:01+00:00,283.863,5.5,13.92,47.84626,-54.09684
2020-05-28 18:09:01+00:00,280.7448,5.5,13.92,47.84626,-54.09684
2020-05-28 18:19:01+00:00,274.7681,5.5,14.0,47.84626,-54.09684
2020-05-28 18:29:01+00:00,266.5648,5.58,14.0,47.84626,-54.09684
2020-05-28 18:39:01+00:00,261.8297,5.58,14.0,47.84626,-54.09684
2020-05-28 18:49:01+00:00,259.798,5.59,14.0,47.84626,-54.09684
2020-05-28 18:59:01+00:00,248.8748,5.66,14.0,47.84626,-54.09684
2020-05-28 19:09:01+00:00,240.4981,5.84,14.0,47.84626,-54.09684
2020-05-28 19:19:01+00:00,235.9181,5.91,14.0,47.84626,-54.09684
2020-05-28 19:29:01+00:00,232.9081,5.99,14.0,47.84626,-54.09684
2020-05-28 19:39:01+00:00,222.4415,6.0,14.0,47.84626,-54.09684
2020-05-28 19:49:01+00:00,213.7514,6.08,14.0,47.84626,-54.09684
2020-05-28 19:59:01+00:00,210.7581,6.1,14.0,47.84626,-54.09684
2020-05-28 20:09:01+00:00,210.7565,6.1,14.0,47.84626,-54.09684
2020-05-28 20:19:01+00:00,206.7131,6.13,13.92,47.84626,-54.09684
2020-05-28 20:29:01+00:00,202.5014,6.18,13.92,47.84626,-54.09684
2020-05-28 20:39:01+00:00,201.2898,6.2,13.92,47.84626,-54.09684
2020-05-28 20:49:01+00:00,200.5515,6.2,13.92,47.84626,-54.09684
2020-05-28 20:59:01+00:00,200.4748,6.2,13.92,47.84626,-54.09684
2020-05-28 21:09:01+00:00,199.4365,6.2,13.92,47.84626,-54.09684
2020-05-28 21:19:01+00:00,198.3131,6.21,13.84,47.84626,-54.09684
2020-05-28 21:29:01+00:00,196.0581,6.24,13.84,47.84626,-54.09684
2020-05-28 21:39:01+00:00,197.2481,6.26,13.84,47.84626,-54.09684
2020-05-28 21:49:01+00:00,203.0481,6.28,13.84,47.84626,-54.09684
2020-05-28 21:59:01+00:00,206.3681,6.29,13.84,47.84626,-54.09684
2020-05-28 22:09:01+00:00,206.8031,6.3,13.84,47.84626,-54.09684
2020-05-28 22:19:01+00:00,208.7964,6.3,13.68,47.84626,-54.09684
2020-05-28 22:29:01+00:00,210.0248,6.3,13.68,47.84626,-54.09684
2020-05-28 22:39:01+00:00,212.7148,6.3,13.68,47.84626,-54.09684
2020-05-28 22:49:01+00:00,216.6564,6.3,13.68,47.84626,-54.09684
2020-05-28 22:59:01+00:00,220.6431,6.3,13.68,47.84626,-54.09684
2020-05-28 23:09:01+00:00,221.5364,6.3,13.68,47.84626,-54.09684
2020-05-28 23:19:01+00:00,225.2048,6.29,13.37,47.84626,-54.09684
2020-05-28 23:29:01+00:00,227.9747,6.29,13.37,47.84626,-54.09684
2020-05-28 23:39:01+00:00,228.7848,6.29,13.37,47.84626,-54.09684
2020-05-28 23:49:01+00:00,233.6565,6.29,13.37,47.84626,-54.09684
2020-05-28 23:59:01+00:00,240.2348,6.28,13.37,47.84626,-54.09684
